UAL1538 KLAX-KLAS

Flight info

Callsign UAL1538
Flight time 0h 47m
Altitude 29000
Route ORCKA5 MISEN RNDRZ4
Aircraft B77L/H-SDE1E2E3FGHIJ2J3J4J5M1RWXY/LB1D1

Departure

Time 2026-05-04 03:29
Airport Los Angeles International Airport (KLAX)

Arrival

Time 2026-05-04 04:16
Airport Harry Reid International Airport (KLAS)
Time Latitude Longitude Altitude Speed Heading
2026-05-04 02:51 33.94523 -118.41148 127 ft 0 kts 83°
2026-05-04 03:08 33.94521 -118.41160 127 ft 2 kts 83°
2026-05-04 03:08 33.94519 -118.41178 127 ft 2 kts 83°
2026-05-04 03:08 33.94517 -118.41196 127 ft 2 kts 83°
2026-05-04 03:08 33.94516 -118.41213 127 ft 2 kts 83°
2026-05-04 03:09 33.94514 -118.41232 127 ft 2 kts 83°
2026-05-04 03:09 33.94514 -118.41249 127 ft 2 kts 118°
2026-05-04 03:09 33.94524 -118.41261 127 ft 2 kts 158°
2026-05-04 03:09 33.94531 -118.41264 127 ft 1 kts 174°
2026-05-04 03:10 33.94535 -118.41264 127 ft 0 kts 173°
2026-05-04 03:16 33.94534 -118.41264 127 ft 0 kts 174°
2026-05-04 03:16 33.94523 -118.41268 127 ft 3 kts 210°
2026-05-04 03:16 33.94499 -118.41303 127 ft 7 kts 237°
2026-05-04 03:17 33.94453 -118.41340 127 ft 9 kts 193°
2026-05-04 03:17 33.94379 -118.41338 127 ft 12 kts 175°
2026-05-04 03:17 33.94285 -118.41325 127 ft 14 kts 173°
2026-05-04 03:17 33.94179 -118.41310 127 ft 16 kts 173°
2026-05-04 03:18 33.94075 -118.41295 129 ft 12 kts 173°
2026-05-04 03:18 33.93986 -118.41280 130 ft 11 kts 174°
2026-05-04 03:18 33.93901 -118.41269 132 ft 12 kts 173°
2026-05-04 03:18 33.93831 -118.41258 133 ft 5 kts 172°
2026-05-04 03:19 33.93799 -118.41254 133 ft 4 kts 167°
2026-05-04 03:19 33.93767 -118.41216 133 ft 8 kts 113°
2026-05-04 03:19 33.93763 -118.41153 133 ft 8 kts 88°
2026-05-04 03:19 33.93770 -118.41073 133 ft 11 kts 84°
2026-05-04 03:20 33.93773 -118.41040 133 ft 0 kts 83°
2026-05-04 03:20 33.93774 -118.41035 133 ft 0 kts 83°
2026-05-04 03:20 33.93774 -118.41029 133 ft 0 kts 83°
2026-05-04 03:21 33.93775 -118.41027 133 ft 1 kts 83°
2026-05-04 03:21 33.93779 -118.40987 133 ft 6 kts 83°
2026-05-04 03:21 33.93786 -118.40919 133 ft 9 kts 82°
2026-05-04 03:21 33.93796 -118.40823 133 ft 12 kts 83°
2026-05-04 03:22 33.93808 -118.40708 133 ft 15 kts 83°
2026-05-04 03:22 33.93822 -118.40567 132 ft 18 kts 83°
2026-05-04 03:22 33.93839 -118.40398 128 ft 22 kts 83°
2026-05-04 03:22 33.93859 -118.40202 127 ft 24 kts 83°
2026-05-04 03:23 33.93881 -118.39996 124 ft 24 kts 83°
2026-05-04 03:23 33.93899 -118.39806 120 ft 21 kts 83°
2026-05-04 03:23 33.93917 -118.39628 117 ft 19 kts 83°
2026-05-04 03:23 33.93934 -118.39465 116 ft 15 kts 82°
2026-05-04 03:24 33.93950 -118.39323 114 ft 19 kts 82°
2026-05-04 03:24 33.93964 -118.39183 114 ft 16 kts 83°
2026-05-04 03:24 33.93979 -118.39041 111 ft 18 kts 83°
2026-05-04 03:24 33.93996 -118.38878 111 ft 20 kts 84°
2026-05-04 03:25 33.94010 -118.38715 111 ft 19 kts 85°
2026-05-04 03:25 33.94026 -118.38572 111 ft 17 kts 82°
2026-05-04 03:25 33.94040 -118.38450 110 ft 4 kts 82°
2026-05-04 03:25 33.94044 -118.38390 109 ft 9 kts 86°
2026-05-04 03:26 33.94042 -118.38362 108 ft 0 kts 108°
2026-05-04 03:26 33.94042 -118.38361 108 ft 0 kts 104°
2026-05-04 03:26 33.94043 -118.38348 108 ft 3 kts 82°
2026-05-04 03:26 33.94051 -118.38296 107 ft 8 kts 82°
2026-05-04 03:27 33.94062 -118.38216 107 ft 11 kts 80°
2026-05-04 03:27 33.94075 -118.38116 107 ft 10 kts 82°
2026-05-04 03:27 33.94073 -118.38038 107 ft 6 kts 111°
2026-05-04 03:27 33.94072 -118.38036 107 ft 0 kts 116°
2026-05-04 03:28 33.94058 -118.38020 107 ft 8 kts 147°
2026-05-04 03:28 33.93999 -118.38020 107 ft 8 kts 216°
2026-05-04 03:28 33.93977 -118.38095 107 ft 10 kts 261°
2026-05-04 03:28 33.93946 -118.38374 108 ft 74 kts 263°
2026-05-04 03:29 33.93845 -118.39341 115 ft 153 kts 262°
2026-05-04 03:29 33.93694 -118.40768 549 ft 182 kts 262°
2026-05-04 03:29 33.93540 -118.42188 1647 ft 169 kts 263°
2026-05-04 03:29 33.93396 -118.43627 2236 ft 182 kts 265°
2026-05-04 03:30 33.93246 -118.45169 2832 ft 195 kts 264°
2026-05-04 03:30 33.93060 -118.46838 3381 ft 211 kts 259°
2026-05-04 03:30 33.92583 -118.48573 3966 ft 227 kts 251°
2026-05-04 03:30 33.91976 -118.50397 4633 ft 243 kts 250°
2026-05-04 03:31 33.91323 -118.52291 5367 ft 254 kts 250°
2026-05-04 03:31 33.90629 -118.54241 6266 ft 258 kts 245°
2026-05-04 03:31 33.89482 -118.55922 7125 ft 268 kts 221°
2026-05-04 03:31 33.87797 -118.56832 8202 ft 271 kts 194°
2026-05-04 03:32 33.85977 -118.56744 9360 ft 268 kts 169°
2026-05-04 03:32 33.84289 -118.55728 10089 ft 282 kts 143°
2026-05-04 03:32 33.83052 -118.53853 10334 ft 294 kts 116°
2026-05-04 03:32 33.82643 -118.51453 10130 ft 291 kts 83°
2026-05-04 03:33 33.83266 -118.49190 10113 ft 285 kts 52°
2026-05-04 03:33 33.84686 -118.47581 10113 ft 278 kts 23°
2026-05-04 03:33 33.86414 -118.46698 10120 ft 271 kts 15°
2026-05-04 03:33 33.88148 -118.45600 10122 ft 302 kts 35°
2026-05-04 03:34 33.89732 -118.43793 10489 ft 325 kts 41°
2026-05-04 03:34 33.91348 -118.41802 11162 ft 335 kts 41°
2026-05-04 03:34 33.92961 -118.39797 11981 ft 339 kts 42°
2026-05-04 03:34 33.94616 -118.37736 12834 ft 343 kts 41°
2026-05-04 03:35 33.96263 -118.35683 13638 ft 347 kts 41°
2026-05-04 03:35 33.97934 -118.33598 14450 ft 350 kts 41°
2026-05-04 03:35 33.99642 -118.31466 15134 ft 358 kts 41°
2026-05-04 03:35 34.01284 -118.29176 15822 ft 367 kts 50°
2026-05-04 03:36 34.02767 -118.26616 16540 ft 374 kts 52°
2026-05-04 03:36 34.04224 -118.24037 16918 ft 379 kts 52°
2026-05-04 03:36 34.05705 -118.21411 16965 ft 379 kts 52°
2026-05-04 03:36 34.07194 -118.18771 16967 ft 377 kts 52°
2026-05-04 03:37 34.08655 -118.16183 16966 ft 377 kts 52°
2026-05-04 03:37 34.10136 -118.13561 16968 ft 376 kts 52°
2026-05-04 03:37 34.11599 -118.10967 16968 ft 376 kts 52°
2026-05-04 03:37 34.13076 -118.08350 16972 ft 381 kts 52°
2026-05-04 03:38 34.14594 -118.05659 17620 ft 387 kts 52°
2026-05-04 03:38 34.16075 -118.03028 18557 ft 384 kts 52°
2026-05-04 03:38 34.17588 -118.00341 19327 ft 387 kts 52°
2026-05-04 03:38 34.19099 -117.97656 19920 ft 395 kts 52°
2026-05-04 03:39 34.20662 -117.94877 20590 ft 399 kts 52°
2026-05-04 03:39 34.22207 -117.92127 21298 ft 402 kts 52°
2026-05-04 03:39 34.23787 -117.89311 21959 ft 406 kts 52°
2026-05-04 03:39 34.25368 -117.86491 22585 ft 411 kts 52°
2026-05-04 03:40 34.26970 -117.83633 23205 ft 415 kts 52°
2026-05-04 03:40 34.28610 -117.80705 23770 ft 421 kts 53°
2026-05-04 03:40 34.30251 -117.77773 24343 ft 425 kts 53°
2026-05-04 03:40 34.31900 -117.74822 24870 ft 430 kts 53°
2026-05-04 03:41 34.33585 -117.71806 25428 ft 435 kts 52°
2026-05-04 03:41 34.35276 -117.68778 26002 ft 438 kts 52°
2026-05-04 03:41 34.37048 -117.65768 26548 ft 442 kts 51°
2026-05-04 03:41 34.38860 -117.62756 27014 ft 447 kts 50°
2026-05-04 03:42 34.40683 -117.59722 27497 ft 452 kts 51°
2026-05-04 03:42 34.42536 -117.56628 28023 ft 456 kts 51°
2026-05-04 03:42 34.44405 -117.53502 28555 ft 458 kts 51°
2026-05-04 03:42 34.46273 -117.50372 28929 ft 462 kts 51°
2026-05-04 03:43 34.48148 -117.47227 28952 ft 461 kts 51°
2026-05-04 03:43 34.51862 -117.40979 28958 ft 458 kts 51°
2026-05-04 03:44 34.55586 -117.34706 28994 ft 459 kts 52°
2026-05-04 03:44 34.59309 -117.28420 28982 ft 457 kts 52°
2026-05-04 03:45 34.62993 -117.22187 28952 ft 456 kts 51°
2026-05-04 03:45 34.66689 -117.15928 28949 ft 457 kts 52°
2026-05-04 03:46 34.70382 -117.09659 28925 ft 457 kts 52°
2026-05-04 03:46 34.74066 -117.03394 28910 ft 454 kts 52°
2026-05-04 03:47 34.77712 -116.97183 28921 ft 453 kts 52°
2026-05-04 03:47 34.81370 -116.90940 28912 ft 455 kts 52°
2026-05-04 03:48 34.85037 -116.84673 28917 ft 454 kts 52°
2026-05-04 03:48 34.88658 -116.78471 28922 ft 451 kts 52°
2026-05-04 03:49 34.92282 -116.72254 28908 ft 451 kts 52°
2026-05-04 03:49 34.95849 -116.65958 28687 ft 447 kts 53°
2026-05-04 03:49 34.97593 -116.62863 28062 ft 448 kts 53°
2026-05-04 03:50 34.99358 -116.59732 27619 ft 444 kts 53°
2026-05-04 03:50 35.01078 -116.56677 27234 ft 439 kts 53°
2026-05-04 03:50 35.02805 -116.53608 26830 ft 434 kts 53°
2026-05-04 03:50 35.04481 -116.50628 26353 ft 431 kts 53°
2026-05-04 03:51 35.06186 -116.47596 25846 ft 429 kts 53°
2026-05-04 03:51 35.07865 -116.44608 25362 ft 427 kts 53°
2026-05-04 03:51 35.09534 -116.41639 24858 ft 424 kts 52°
2026-05-04 03:51 35.11382 -116.38908 24355 ft 420 kts 45°
2026-05-04 03:52 35.13382 -116.36306 23864 ft 417 kts 44°
2026-05-04 03:52 35.15350 -116.33767 23361 ft 415 kts 44°
2026-05-04 03:52 35.17326 -116.31216 22868 ft 412 kts 44°
2026-05-04 03:52 35.19269 -116.28703 22381 ft 409 kts 44°
2026-05-04 03:53 35.21222 -116.26176 21879 ft 407 kts 44°
2026-05-04 03:53 35.23149 -116.23676 21390 ft 404 kts 45°
2026-05-04 03:53 35.25027 -116.21122 20910 ft 401 kts 46°
2026-05-04 03:53 35.26872 -116.18584 20419 ft 399 kts 46°
2026-05-04 03:54 35.28710 -116.16056 19934 ft 396 kts 46°
2026-05-04 03:54 35.30531 -116.13552 19448 ft 394 kts 46°
2026-05-04 03:54 35.32339 -116.11068 18969 ft 391 kts 46°
2026-05-04 03:54 35.34112 -116.08629 18729 ft 382 kts 46°
2026-05-04 03:55 35.35855 -116.06232 18607 ft 373 kts 46°
2026-05-04 03:55 35.37575 -116.03865 18450 ft 371 kts 46°
2026-05-04 03:55 35.39298 -116.01495 18269 ft 370 kts 46°
2026-05-04 03:55 35.40987 -115.99169 18082 ft 368 kts 46°
2026-05-04 03:56 35.42683 -115.96832 17909 ft 366 kts 46°
2026-05-04 03:56 35.44365 -115.94514 17723 ft 364 kts 46°
2026-05-04 03:56 35.46056 -115.92181 17531 ft 362 kts 46°
2026-05-04 03:56 35.47737 -115.89861 17349 ft 360 kts 46°
2026-05-04 03:57 35.49400 -115.87563 17155 ft 358 kts 46°
2026-05-04 03:57 35.51062 -115.85266 16965 ft 357 kts 45°
2026-05-04 03:57 35.52752 -115.82928 16780 ft 356 kts 45°
2026-05-04 03:57 35.54429 -115.80608 16596 ft 354 kts 46°
2026-05-04 03:58 35.57715 -115.76054 16218 ft 343 kts 45°
2026-05-04 03:58 35.59295 -115.73861 16048 ft 334 kts 45°
2026-05-04 03:58 35.60878 -115.71713 15878 ft 326 kts 44°
2026-05-04 03:59 35.62447 -115.69607 15704 ft 323 kts 44°
2026-05-04 03:59 35.63990 -115.67533 15536 ft 324 kts 44°
2026-05-04 03:59 35.65536 -115.65447 15368 ft 322 kts 44°
2026-05-04 03:59 35.67092 -115.63344 15201 ft 320 kts 44°
2026-05-04 04:00 35.68614 -115.61285 15038 ft 319 kts 44°
2026-05-04 04:00 35.70100 -115.59274 14869 ft 317 kts 44°
2026-05-04 04:00 35.71613 -115.57225 14704 ft 317 kts 44°
2026-05-04 04:00 35.73273 -115.55346 14530 ft 312 kts 31°
2026-05-04 04:01 35.75211 -115.53883 14367 ft 309 kts 26°
2026-05-04 04:01 35.77144 -115.52536 14201 ft 307 kts 26°
2026-05-04 04:01 35.79124 -115.51160 14030 ft 307 kts 26°
2026-05-04 04:01 35.81015 -115.49839 13868 ft 304 kts 26°
2026-05-04 04:02 35.82948 -115.48486 13694 ft 304 kts 26°
2026-05-04 04:02 35.84860 -115.47145 13544 ft 304 kts 26°
2026-05-04 04:02 35.86736 -115.45828 13397 ft 304 kts 26°
2026-05-04 04:02 35.88697 -115.44450 13225 ft 302 kts 26°
2026-05-04 04:03 35.90573 -115.43132 13042 ft 302 kts 26°
2026-05-04 04:03 35.92432 -115.41831 12801 ft 304 kts 26°
2026-05-04 04:03 35.94312 -115.40522 12409 ft 305 kts 26°
2026-05-04 04:03 35.96145 -115.39244 12059 ft 303 kts 26°
2026-05-04 04:04 35.98004 -115.37946 11705 ft 302 kts 26°
2026-05-04 04:04 35.99745 -115.36540 11352 ft 303 kts 41°
2026-05-04 04:04 36.00943 -115.34396 10983 ft 306 kts 68°
2026-05-04 04:04 36.01328 -115.31823 10743 ft 302 kts 86°
2026-05-04 04:05 36.01310 -115.29214 10563 ft 296 kts 91°
2026-05-04 04:05 36.01199 -115.26668 10364 ft 292 kts 92°
2026-05-04 04:05 36.01076 -115.24185 10159 ft 287 kts 93°
2026-05-04 04:05 36.00954 -115.21748 9958 ft 282 kts 93°
2026-05-04 04:06 36.00833 -115.19332 9757 ft 278 kts 93°
2026-05-04 04:06 36.00714 -115.16956 9561 ft 273 kts 93°
2026-05-04 04:06 36.00597 -115.14633 9369 ft 269 kts 94°
2026-05-04 04:06 36.00480 -115.12304 9178 ft 265 kts 94°
2026-05-04 04:07 36.00367 -115.10066 8988 ft 261 kts 94°
2026-05-04 04:07 36.00251 -115.07806 8742 ft 260 kts 94°
2026-05-04 04:07 36.00137 -115.05568 8490 ft 259 kts 94°
2026-05-04 04:07 36.00024 -115.03351 8246 ft 258 kts 95°
2026-05-04 04:08 35.99910 -115.01136 8005 ft 257 kts 94°
2026-05-04 04:08 35.99848 -114.98880 7431 ft 272 kts 93°
2026-05-04 04:08 35.99792 -114.96501 7080 ft 273 kts 93°
2026-05-04 04:08 35.99743 -114.94183 6986 ft 265 kts 93°
2026-05-04 04:09 35.99709 -114.91942 6870 ft 258 kts 91°
2026-05-04 04:09 35.99726 -114.89760 6840 ft 248 kts 91°
2026-05-04 04:09 35.99751 -114.87669 6834 ft 235 kts 91°
2026-05-04 04:09 35.99778 -114.85689 6837 ft 220 kts 90°
2026-05-04 04:10 36.00141 -114.83910 6823 ft 212 kts 56°
2026-05-04 04:10 36.01222 -114.82749 6806 ft 205 kts 17°
2026-05-04 04:10 36.02600 -114.82614 6787 ft 193 kts 337°
2026-05-04 04:10 36.03819 -114.83251 6703 ft 193 kts 327°
2026-05-04 04:11 36.04848 -114.84237 6455 ft 182 kts 303°
2026-05-04 04:11 36.05621 -114.85490 6234 ft 185 kts 301°
2026-05-04 04:11 36.06393 -114.86771 6003 ft 187 kts 300°
2026-05-04 04:11 36.07064 -114.88178 5772 ft 192 kts 286°
2026-05-04 04:12 36.07330 -114.89793 5530 ft 193 kts 271°
2026-05-04 04:12 36.07361 -114.91454 5288 ft 191 kts 266°
2026-05-04 04:12 36.07355 -114.93102 5054 ft 189 kts 266°
2026-05-04 04:12 36.07352 -114.94704 4823 ft 187 kts 267°
2026-05-04 04:13 36.07353 -114.96339 4587 ft 187 kts 268°
2026-05-04 04:13 36.07356 -114.97946 4351 ft 185 kts 267°
2026-05-04 04:13 36.07358 -114.99536 4111 ft 184 kts 267°
2026-05-04 04:13 36.07359 -115.01110 3869 ft 183 kts 267°
2026-05-04 04:14 36.07361 -115.02655 3638 ft 172 kts 266°
2026-05-04 04:14 36.07361 -115.04170 3412 ft 177 kts 266°
2026-05-04 04:14 36.07362 -115.05692 3172 ft 176 kts 266°
2026-05-04 04:14 36.07364 -115.07192 2929 ft 169 kts 266°
2026-05-04 04:15 36.07364 -115.08611 2714 ft 157 kts 266°
2026-05-04 04:15 36.07365 -115.09878 2512 ft 138 kts 266°
2026-05-04 04:15 36.07364 -115.11044 2340 ft 134 kts 265°
2026-05-04 04:15 36.07375 -115.12183 2176 ft 132 kts 265°
2026-05-04 04:16 36.07366 -115.13330 2081 ft 124 kts 266°
2026-05-04 04:16 36.07361 -115.14250 2106 ft 92 kts 270°
2026-05-04 04:16 36.07385 -115.14822 2125 ft 34 kts 288°
2026-05-04 04:16 36.07446 -115.15002 2130 ft 13 kts 299°
2026-05-04 04:17 36.07477 -115.15063 2132 ft 3 kts 304°
2026-05-04 04:17 36.07487 -115.15081 2133 ft 4 kts 305°
2026-05-04 04:17 36.07509 -115.15109 2133 ft 5 kts 317°
2026-05-04 04:17 36.07532 -115.15131 2134 ft 0 kts 327°
2026-05-04 04:18 36.07536 -115.15134 2134 ft 0 kts 326°
2026-05-04 04:19 36.07544 -115.15140 2134 ft 4 kts 326°
2026-05-04 04:19 36.07576 -115.15163 2134 ft 6 kts 333°
2026-05-04 04:19 36.07629 -115.15192 2134 ft 9 kts 337°
2026-05-04 04:20 36.07694 -115.15228 2134 ft 9 kts 334°
2026-05-04 04:20 36.07753 -115.15256 2134 ft 9 kts 352°
2026-05-04 04:20 36.07801 -115.15198 2131 ft 13 kts 78°
2026-05-04 04:20 36.07801 -115.15061 2126 ft 18 kts 94°
2026-05-04 04:21 36.07792 -115.14918 2120 ft 18 kts 95°
2026-05-04 04:21 36.07780 -115.14749 2116 ft 19 kts 93°
2026-05-04 04:21 36.07775 -115.14667 2114 ft 9 kts 94°
2026-05-04 04:21 36.07767 -115.14561 2110 ft 15 kts 96°
2026-05-04 04:22 36.07755 -115.14411 2105 ft 20 kts 95°
2026-05-04 04:22 36.07753 -115.14252 2100 ft 18 kts 89°
2026-05-04 04:22 36.07754 -115.14091 2096 ft 17 kts 90°
2026-05-04 04:22 36.07754 -115.13924 2089 ft 21 kts 90°
2026-05-04 04:23 36.07800 -115.13790 2086 ft 18 kts 18°
2026-05-04 04:23 36.07925 -115.13751 2081 ft 18 kts 357°
2026-05-04 04:23 36.08012 -115.13707 2078 ft 11 kts 42°
2026-05-04 04:23 36.08040 -115.13673 2077 ft 1 kts 44°
2026-05-04 04:24 36.08049 -115.13662 2077 ft 1 kts 46°
2026-05-04 04:24 36.08050 -115.13661 2077 ft 0 kts 46°